Regional Weather Roundup
Issued by NWS

Home | Current Version | Previous Version | Graphics & Text | Print | Product List | Glossary On
Versions: 1 2 3 4 5 6 7 8 9 10 11 12 13 14 15 16 17 18 19 20 21 22 23 24 25 26 27 28 29 30 31 32 33 34 35 36 37 38 39 40 41 42 43 44 45 46 47 48 49 50
000
ASUS43 KFSD 251602
RWRSD

WEATHER ROUNDUP FOR SOUTH DAKOTA
NATIONAL WEATHER SERVICE SIOUX FALLS SD
1100 AM CDT FRI MAY 25 2018

NOTE: "FAIR" INDICATES FEW OR NO CLOUDS BELOW 12,000 FEET WITH NO
SIGNIFICANT WEATHER AND/OR OBSTRUCTIONS TO VISIBILITY.


SDZ001>005-009-010-012>017-251700-
NORTHWEST AND NORTH CENTRAL SOUTH DAKOTA

CITY           SKY/WX    TMP DP  RH WIND       PRES   REMARKS
BUFFALO          N/A     77  51  40 W16       29.85S
FAITH            N/A     77  61  57 NW13      29.87S
MOBRIDGE       SUNNY     80  62  54 VRB5      29.78F
$$

SDZ012>016-024>037-041>051-057-063-072>074-251700-
SOUTHWEST AND SOUTH CENTRAL SOUTH DAKOTA

CITY           SKY/WX    TMP DP  RH WIND       PRES   REMARKS
RAPID CTY ARPT SUNNY     78  56  46 N10       29.93S
PIERRE         SUNNY     81  64  56 W8        29.81S
CUSTER         PTSUNNY   72  44  36 MISG      30.07S
ELLSWORTH AFB  SUNNY     78  56  45 N10       29.93S
PHILIP         SUNNY     78  67  68 W5        29.87S
PINE RIDGE     SUNNY     76  57  51 W8        29.95S
SPEARFISH      FAIR      73  50  43 NW9G16    29.99S
WINNER         FAIR      81  60  48 CALM      29.86F
$$

SDZ004>011-016>023-039-040-251700-
NORTHEAST SOUTH DAKOTA

CITY           SKY/WX    TMP DP  RH WIND       PRES   REMARKS
ABERDEEN       SUNNY     87  58  37 NW8       29.77S
WATERTOWN      SUNNY     81  60  48 W6        29.80S
BROOKINGS      SUNNY     84  59  42 SW5       29.81F
SISSETON         N/A     85  60  42 W10       29.74S
$$

SDZ017-020-022-023-036>040-048>070-251700-
SOUTHEAST SOUTH DAKOTA

CITY           SKY/WX    TMP DP  RH WIND       PRES   REMARKS
SIOUX FALLS    MOSUNNY   84  66  54 CALM      29.82S
HURON          SUNNY     84  64  50 SW7       29.78F
CHAMBERLAIN    MOSUNNY   81  65  58 SW3       29.83S
MITCHELL       MOSUNNY   85  65  51 W7        29.81S
YANKTON        SUNNY     80  64  58 CALM      29.84S
$$

ABBREVIATIONS USED IN REMARKS
   TC - TEMPERATURE IN CELSIUS
  WCI - WIND CHILL INDEX
   HX - HEAT INDEX
  VSB - VISIBILITY




USA.gov is the U.S. government's official web portal to all federal, state and local government web resources and services.